DW2513 Weather Reports


Display with metric or nautical units.
time (UTC)temp
F
wind
direction
speed
MPH
gust
MPH
rain 1hr
in
rain 24hr
in
rain mn
in
humidity
%
barometer
mb
20190718030802 71 292 0.0 0.0 0.00 0.04 0.04 100 1010.2
20190718025804 71 292 0.0 0.0 0.00 0.04 0.04 100 1010.4
20190718024804 71 292 0.0 0.0 0.00 0.04 0.04 100 1010.1
20190718023302 71 292 0.0 0.0 0.00 0.04 0.04 100 1009.6
20190718022802 71 292 0.0 0.0 0.00 0.04 0.04 100 1009.6
20190718022303 71 292 0.0 0.0 0.00 0.04 0.04 100 1009.6
20190718021303 71 292 0.0 0.0 0.00 0.04 0.04 100 1009.6
20190718020804 71 292 0.0 0.0 0.00 0.04 0.04 100 1009.6
20190718020302 71 292 0.0 0.0 0.00 0.04 0.04 100 1009.6
20190718015304 71 292 0.0 0.0 0.00 0.04 0.04 100 1009.6
20190718014803 72 292 0.0 0.0 0.00 0.04 0.04 100 1009.6
20190718014304 72 292 0.0 0.0 0.00 0.04 0.04 100 1009.6
20190718013304 72 292 0.0 0.0 0.00 0.04 0.04 100 1009.6
20190718012803 72 292 0.0 0.0 0.00 0.04 0.04 100 1009.4
20190718012303 72 292 0.0 0.0 0.00 0.04 0.04 100 1008.9
20190718011804 72 292 0.0 0.0 0.00 0.04 0.04 100 1008.9
20190718011303 72 292 0.0 0.0 0.00 0.04 0.04 100 1008.9
20190718005804 73 292 0.0 0.0 0.00 0.04 0.04 100 1008.9
20190718005302 73 292 0.0 0.0 0.00 0.04 0.04 100 1008.9
20190718002803 73 292 0.0 0.0 0.00 0.04 0.04 100 1008.4
20190718001804 73 292 0.0 0.0 0.00 0.04 0.04 100 1008.4
20190718001302 74 292 0.0 0.0 0.00 0.04 0.04 100 1008.4
20190718000803 74 292 0.0 0.0 0.00 0.04 0.04 100 1008.4
20190718000304 74 292 0.0 0.0 0.00 0.04 0.04 100 1008.5
20190717235802 74 292 0.0 0.0 0.00 0.04 0.04 100 1008.5
20190717234303 74 292 0.0 0.0 0.00 0.04 0.04 99 1008.5
20190717233303 74 292 0.0 0.0 0.00 0.04 0.04 100 1008.4
20190717232804 74 292 0.0 0.0 0.00 0.04 0.04 100 1008.4
20190717232302 74 292 0.0 0.0 0.00 0.04 0.04 99 1008.6
20190717231803 75 292 0.0 0.0 0.00 0.04 0.04 99 1008.8
20190717231304 75 292 0.0 0.0 0.00 0.04 0.04 99 1008.7
20190717230302 75 292 0.0 0.0 0.00 0.04 0.04 99 1008.6
20190717225803 75 292 0.0 0.0 0.00 0.04 0.04 99 1008.5
20190717225301 75 292 0.0 0.0 0.00 0.04 0.04 99 1008.4
20190717224803 75 292 0.0 0.0 0.00 0.04 0.04 99 1008.4
20190717223803 75 292 0.0 0.0 0.00 0.04 0.04 100 1008.3
20190717222805 75 292 0.0 0.0 0.00 0.04 0.04 99 1007.9
20190717221303 75 292 0.0 0.0 0.00 0.04 0.04 99 1007.9
20190717220303 75 292 0.0 0.0 0.00 0.04 0.04 100 1008.0
20190717215803 75 292 0.0 0.0 0.00 0.04 0.04 100 1008.0
20190717214804 75 292 0.0 0.0 0.00 0.04 0.04 100 1008.3
20190717214303 75 292 0.0 0.0 0.00 0.04 0.04 100 1008.2
20190717213303 75 292 0.0 0.0 0.00 0.04 0.04 95 1008.2
20190717212803 75 292 0.0 0.0 0.00 0.04 0.04 94 1008.2
20190717212302 75 292 0.0 0.0 0.00 0.04 0.04 93 1008.3
20190717211303 76 292 0.0 1.0 0.00 0.04 0.04 92 1008.0
20190717204804 76 349 0.0 0.0 0.00 0.04 0.04 97 1007.8
20190717204303 76 109 0.0 0.0 0.00 0.04 0.04 96 1007.7
20190717203804 76 131 0.0 3.0 0.00 0.04 0.04 96 1007.7
20190717203304 76 228 1.0 3.0 0.00 0.04 0.04 96 1007.6
20190717202804 76 249 0.0 0.0 0.00 0.04 0.04 96 1007.6
20190717202303 75 53 0.0 0.0 0.00 0.04 0.04 96 1007.6
20190717201803 75 53 0.0 0.0 0.00 0.04 0.04 96 1007.6
20190717200804 75 63 0.0 0.0 0.00 0.04 0.04 100 1007.9
20190717195304 75 49 0.0 0.0 0.01 0.04 0.04 100 1007.9
20190717194803 76 49 0.0 0.0 0.01 0.04 0.04 100 1007.9
20190717193803 76 109 0.0 0.0 0.02 0.04 0.04 100 1007.9
20190717193304 76 109 0.0 0.0 0.02 0.04 0.04 100 1008.5
20190717192303 76 109 0.0 0.0 0.02 0.04 0.04 100 1008.5
20190717191302 76 109 0.0 0.0 0.02 0.04 0.04 94 1008.6
20190717190805 76 109 0.0 0.0 0.02 0.04 0.04 92 1008.7
20190717190304 76 109 0.0 0.0 0.01 0.03 0.03 91 1008.9
20190717184803 77 109 0.0 0.0 0.01 0.03 0.03 84 1009.3
20190717184304 77 109 0.0 0.0 0.01 0.03 0.03 82 1009.3
20190717183802 77 109 0.0 0.0 0.00 0.02 0.02 82 1009.3
20190717183303 77 109 0.0 1.0 0.00 0.02 0.02 81 1009.3
20190717182804 78 240 0.0 6.0 0.00 0.04 0.02 79 1009.3
20190717182303 78 273 0.0 0.0 0.00 0.09 0.02 78 1009.3
20190717181803 78 273 0.0 0.0 0.00 0.09 0.02 77 1009.2
20190717181304 78 285 0.0 0.0 0.00 0.09 0.02 75 1009.3
20190717180803 79 285 0.0 0.0 0.00 0.09 0.02 74 1009.3
20190717180304 79 285 0.0 0.0 0.00 0.09 0.02 73 1009.3
20190717175804 80 285 0.0 0.0 0.00 0.09 0.02 72 1009.3
20190717175302 80 285 0.0 2.0 0.00 0.09 0.02 70 1009.3
20190717174804 80 144 0.0 2.0 0.00 0.09 0.02 71 1008.9
20190717171805 80 63 0.0 0.0 0.00 0.09 0.02 68 1008.9
20190717171303 80 63 0.0 0.0 0.00 0.09 0.02 69 1008.9
20190717170302 79 33 0.0 3.0 0.00 0.09 0.02 74 1008.9
20190717165804 79 134 0.0 0.0 0.00 0.09 0.02 75 1008.9
20190717163804 79 137 0.0 0.0 0.00 0.09 0.02 76 1008.9
20190717163305 78 139 0.0 0.0 0.00 0.09 0.02 76 1008.9
20190717162303 78 139 0.0 0.0 0.00 0.09 0.02 73 1008.9
20190717161305 78 139 0.0 0.0 0.00 0.09 0.02 74 1008.9
20190717160803 78 139 0.0 0.0 0.00 0.09 0.02 74 1008.9
20190717155803 77 139 0.0 0.0 0.00 0.09 0.02 78 1009.1
20190717155303 76 139 0.0 0.0 0.00 0.09 0.02 79 1009.3
20190717154804 75 139 0.0 0.0 0.00 0.09 0.02 83 1009.3
20190717154305 75 139 0.0 0.0 0.00 0.09 0.02 86 1009.4
20190717153803 75 139 0.0 0.0 0.00 0.09 0.02 88 1009.4
20190717153303 74 139 0.0 0.0 0.00 0.09 0.02 89 1009.5
20190717152803 74 139 0.0 0.0 0.00 0.09 0.02 89 1009.5
20190717152303 74 139 0.0 0.0 0.00 0.09 0.02 89 1009.5
20190717151805 74 139 0.0 0.0 0.00 0.09 0.02 88 1009.5
20190717150303 74 139 0.0 0.0 0.00 0.09 0.02 88 1009.7
20190717145305 74 139 0.0 0.0 0.00 0.09 0.02 89 1009.8
20190717144803 74 139 0.0 0.0 0.00 0.09 0.02 88 1009.9
20190717144304 74 139 0.0 0.0 0.00 0.09 0.02 88 1009.9
20190717143803 74 139 0.0 0.0 0.00 0.09 0.02 88 1009.9
20190717143304 74 139 0.0 0.0 0.00 0.09 0.02 90 1009.9
20190717142304 74 139 0.0 0.0 0.00 0.09 0.02 89 1009.9
20190717141803 74 139 0.0 0.0 0.00 0.09 0.02 90 1009.9
20190717140805 74 139 0.0 0.0 0.00 0.09 0.02 90 1009.9
20190717135803 74 136 0.0 0.0 0.00 0.09 0.02 91 1009.9
20190717134804 74 24 0.0 0.0 0.00 0.09 0.02 90 1009.9
20190717133803 73 24 0.0 0.0 0.00 0.09 0.02 92 1009.9
20190717133304 73 24 0.0 0.0 0.00 0.09 0.02 98 1009.9
20190717132803 73 24 0.0 0.0 0.00 0.09 0.02 100 1009.9
20190717132304 73 24 0.0 0.0 0.00 0.09 0.02 100 1009.9
20190717131803 72 24 0.0 0.0 0.00 0.09 0.02 100 1009.9
20190717131303 72 24 0.0 0.0 0.00 0.09 0.02 100 1009.9
20190717130804 72 24 0.0 0.0 0.00 0.09 0.02 100 1009.9
20190717125804 71 24 0.0 0.0 0.00 0.09 0.02 100 1009.9
20190717125304 71 24 0.0 0.0 0.01 0.09 0.02 100 1010.0
20190717124804 71 24 0.0 0.0 0.01 0.09 0.02 100 1010.0
20190717124305 71 24 0.0 0.0 0.01 0.09 0.02 100 1010.0
20190717123805 71 24 0.0 0.0 0.01 0.09 0.02 100 1010.0
20190717122805 71 24 0.0 0.0 0.01 0.09 0.02 100 1010.0
20190717121805 71 24 0.0 0.0 0.01 0.09 0.02 100 1009.9
20190717121305 71 24 0.0 0.0 0.01 0.09 0.02 100 1009.9
20190717120805 71 24 0.0 0.0 0.01 0.09 0.02 100 1010.0
20190717115804 71 24 0.0 0.0 0.01 0.09 0.02 98 1010.0
20190717115304 71 24 0.0 0.0 0.00 0.08 0.01 97 1010.0
20190717114804 71 24 0.0 0.0 0.00 0.08 0.01 95 1009.9
20190717113804 71 24 0.0 0.0 0.00 0.08 0.01 94 1009.9
20190717113305 71 24 0.0 0.0 0.00 0.08 0.01 92 1009.8
20190717112304 71 24 0.0 0.0 0.00 0.08 0.01 90 1009.8
20190717111805 72 24 0.0 0.0 0.00 0.08 0.01 89 1009.8
20190717110805 71 24 0.0 0.0 0.00 0.08 0.01 85 1009.8
20190717105805 71 24 0.0 0.0 0.00 0.08 0.01 85 1009.8
20190717105304 72 24 0.0 0.0 0.00 0.08 0.01 84 1009.8
20190717104803 72 24 0.0 0.0 0.00 0.08 0.01 84 1009.8
20190717104304 72 24 0.0 0.0 0.00 0.08 0.01 84 1009.8
20190717103304 72 24 0.0 0.0 0.00 0.08 0.01 83 1009.8
20190717102803 72 24 0.0 0.0 0.00 0.08 0.01 83 1009.8
20190717101804 72 24 0.0 0.0 0.00 0.08 0.01 84 1009.9
20190717101304 72 24 0.0 0.0 0.00 0.08 0.01 84 1009.8
20190717100803 72 24 0.0 0.0 0.00 0.08 0.01 84 1009.8
20190717095804 72 24 0.0 0.0 0.00 0.08 0.01 84 1009.7
20190717094304 72 24 0.0 0.0 0.01 0.08 0.01 84 1009.6
20190717093804 72 24 0.0 0.0 0.01 0.08 0.01 84 1009.6
20190717093304 72 24 0.0 0.0 0.01 0.08 0.01 84 1009.5
20190717092803 72 24 0.0 0.0 0.01 0.08 0.01 85 1009.5
20190717090803 72 24 0.0 0.0 0.01 0.08 0.01 85 1009.4
20190717090303 72 24 0.0 0.0 0.01 0.08 0.01 86 1009.4
20190717085803 72 24 0.0 0.0 0.01 0.08 0.01 85 1009.4
20190717085303 72 24 0.0 0.0 0.01 0.08 0.01 85 1009.4
20190717084803 72 24 0.0 0.0 0.00 0.07 0.00 85 1009.4
20190717084303 72 24 0.0 0.0 0.00 0.07 0.00 84 1009.4
20190717082303 71 24 0.0 0.0 0.00 0.07 0.00 90 1009.4
20190717081303 71 24 0.0 0.0 0.00 0.07 0.00 96 1009.4
20190717080804 70 24 0.0 0.0 0.00 0.07 0.00 97 1009.4
20190717075304 70 24 0.0 0.0 0.00 0.07 0.00 99 1009.4
20190717074304 70 24 0.0 0.0 0.00 0.07 0.00 98 1009.4
20190717073304 70 24 0.0 0.0 0.00 0.07 0.00 99 1010.0
20190717072304 70 24 0.0 0.0 0.00 0.07 0.00 99 1010.0
20190717070304 70 24 0.0 0.0 0.00 0.07 0.00 100 1010.0
20190717065805 70 24 0.0 3.0 0.00 0.07 0.00 100 1010.0
20190717064304 69 24 0.0 0.0 0.00 0.07 0.00 100 1010.0
20190717063805 69 24 0.0 0.0 0.00 0.07 0.00 100 1010.0
20190717063305 69 24 0.0 0.0 0.00 0.07 0.00 100 1010.0
20190717061305 69 24 0.0 0.0 0.00 0.07 0.00 100 1010.0
20190717060805 69 24 0.0 0.0 0.00 0.07 0.00 99 1010.0
20190717060304 69 24 0.0 0.0 0.00 0.07 0.00 99 1010.0
20190717055805 69 24 0.0 0.0 0.00 0.07 0.00 99 1010.0
20190717055305 70 24 0.0 0.0 0.00 0.07 0.00 99 1009.9
20190717054304 69 24 0.0 0.0 0.00 0.07 0.00 99 1009.9
20190717053304 70 24 0.0 0.0 0.00 0.07 0.00 98 1010.0
20190717052804 70 24 0.0 0.0 0.00 0.07 0.00 98 1010.0
20190717052304 70 24 0.0 0.0 0.00 0.07 0.00 99 1010.0
20190717051803 70 24 0.0 0.0 0.00 0.07 0.00 99 1010.1
20190717051304 70 24 0.0 0.0 0.00 0.07 0.00 99 1010.1
20190717050804 70 24 0.0 0.0 0.00 0.07 0.00 100 1010.2
20190717050303 70 24 0.0 0.0 0.00 0.07 0.00 100 1010.2
20190717045304 70 24 0.0 0.0 0.00 0.07 0.00 98 1010.4
20190717044804 70 24 0.0 0.0 0.00 0.07 0.00 98 1010.4
20190717044304 70 24 0.0 0.0 0.00 0.07 0.00 97 1010.3
20190717043304 70 24 0.0 0.0 0.00 0.07 0.00 96 1010.2
20190717042805 70 24 0.0 0.0 0.00 0.07 0.00 95 1010.0
20190717040820 70 24 0.0 0.0 0.00 0.07 0.00 92 1010.1
20190717040257 70 24 0.0 0.0 0.00 0.07 0.00 91 1010.1
20190717035804 71 24 0.0 0.0 0.00 0.07 0.07 90 1010.1
20190717035304 71 24 0.0 0.0 0.00 0.07 0.07 90 1010.1
20190717034804 71 24 0.0 0.0 0.00 0.07 0.07 89 1010.1
20190717034303 71 24 0.0 0.0 0.00 0.07 0.07 89 1010.2
20190717033804 71 24 0.0 0.0 0.00 0.07 0.07 89 1010.2
20190717033304 71 24 0.0 0.0 0.00 0.07 0.07 90 1010.2
20190717032803 71 24 0.0 0.0 0.00 0.07 0.07 90 1010.2
20190717031304 72 24 0.0 0.0 0.00 0.07 0.07 90 1010.3